Time,TemperatureF,DewpointF,PressureIn,WindDirection,WindDirectionDegrees,WindSpeedMPH,WindSpeedGustMPH,Humidity,HourlyPrecipIn,Conditions,Clouds,dailyrainin,SoftwareType,DateUTC
2013-10-18 00:14:00,70.0,68.0,29.90,SSE,166,0.0,3.0,95,0.00,,,0.00,,2013-10-18 04:14:00,
2013-10-18 00:24:00,70.0,68.0,29.90,SSE,166,0.0,1.0,95,0.00,,,0.00,,2013-10-18 04:24:00,
2013-10-18 00:43:00,70.0,69.0,29.89,SSE,166,0.0,3.0,96,0.00,,,0.00,,2013-10-18 04:43:00,
2013-10-18 00:53:00,70.0,69.0,29.89,SSE,166,0.0,3.0,96,0.00,,,0.00,,2013-10-18 04:53:00,
2013-10-18 01:13:00,70.0,69.0,29.89,SSE,164,0.0,3.0,96,0.00,,,0.00,,2013-10-18 05:13:00,
2013-10-18 01:23:00,70.0,69.0,29.89,SSE,164,0.0,0.0,96,0.00,,,0.00,,2013-10-18 05:23:00,
2013-10-18 01:43:00,70.0,69.0,29.89,SSE,164,0.0,1.0,96,0.00,,,0.00,,2013-10-18 05:43:00,
2013-10-18 01:52:00,69.0,68.0,29.88,SSE,165,0.0,0.0,96,0.00,,,0.00,,2013-10-18 05:52:00,
2013-10-18 02:12:00,69.0,68.0,29.88,SSE,165,0.0,1.0,96,0.00,,,0.00,,2013-10-18 06:12:00,
2013-10-18 02:22:00,69.0,68.0,29.88,SSE,165,0.0,1.0,96,0.00,,,0.00,,2013-10-18 06:22:00,
2013-10-18 02:42:00,69.0,68.0,29.88,SSE,164,0.0,0.0,96,0.00,,,0.00,,2013-10-18 06:42:00,
2013-10-18 02:52:00,69.0,68.0,29.88,SSE,165,0.0,0.0,96,0.00,,,0.00,,2013-10-18 06:52:00,
2013-10-18 03:11:00,69.0,68.0,29.88,SSE,164,0.0,0.0,96,0.00,,,0.00,,2013-10-18 07:11:00,
2013-10-18 03:22:00,69.0,68.0,29.88,SSE,164,0.0,0.0,96,0.00,,,0.00,,2013-10-18 07:22:00,
2013-10-18 03:42:00,68.0,67.0,29.88,SSE,164,0.0,1.0,96,0.00,,,0.00,,2013-10-18 07:42:00,
2013-10-18 03:52:00,68.0,67.0,29.88,SSE,164,0.0,0.0,96,0.00,,,0.00,,2013-10-18 07:52:00,
2013-10-18 04:11:00,68.0,67.0,29.88,SSE,164,0.0,0.0,96,0.00,,,0.00,,2013-10-18 08:11:00,
2013-10-18 04:22:00,68.0,67.0,29.88,SSE,164,0.0,0.0,96,0.00,,,0.00,,2013-10-18 08:22:00,
2013-10-18 04:42:00,68.0,67.0,29.88,SSE,164,0.0,0.0,96,0.00,,,0.00,,2013-10-18 08:42:00,
2013-10-18 04:52:00,68.0,67.0,29.88,SSE,164,0.0,0.0,96,0.00,,,0.00,,2013-10-18 08:52:00,
2013-10-18 05:12:00,68.0,67.0,29.88,SSE,164,0.0,0.0,96,0.00,,,0.00,,2013-10-18 09:12:00,
2013-10-18 05:22:00,69.0,68.0,29.88,SSE,164,0.0,0.0,96,0.00,,,0.00,,2013-10-18 09:22:00,
2013-10-18 05:53:00,69.0,68.0,29.89,SSE,164,0.0,0.0,97,0.00,,,0.00,,2013-10-18 09:53:00,
2013-10-18 06:12:00,69.0,68.0,29.89,SSE,166,0.0,0.0,96,0.00,,,0.00,,2013-10-18 10:12:00,
2013-10-18 06:23:00,69.0,68.0,29.90,SSE,165,0.0,0.0,96,0.00,,,0.00,,2013-10-18 10:23:00,
2013-10-18 06:43:00,69.0,68.0,29.90,SSE,165,0.0,0.0,97,0.00,,,0.00,,2013-10-18 10:43:00,
2013-10-18 06:53:00,69.0,68.0,29.90,SSE,164,0.0,0.0,97,0.00,,,0.00,,2013-10-18 10:53:00,
2013-10-18 07:12:00,69.0,68.0,29.90,SSE,164,0.0,0.0,97,0.00,,,0.00,,2013-10-18 11:12:00,
2013-10-18 07:22:00,69.0,68.0,29.90,SSE,164,0.0,0.0,97,0.00,,,0.00,,2013-10-18 11:22:00,
2013-10-18 07:42:00,69.0,68.0,29.91,SSE,164,0.0,3.0,97,0.00,,,0.00,,2013-10-18 11:42:00,
2013-10-18 07:52:00,70.0,69.0,29.91,SSE,164,1.0,3.0,97,0.00,,,0.00,,2013-10-18 11:52:00,
2013-10-18 08:12:00,70.0,69.0,29.92,South,171,0.0,0.0,97,0.00,,,0.00,,2013-10-18 12:12:00,
2013-10-18 08:22:00,70.0,69.0,29.92,South,172,0.0,0.0,97,0.00,,,0.00,,2013-10-18 12:22:00,
2013-10-18 08:42:00,71.0,70.0,29.93,South,171,0.0,0.0,97,0.00,,,0.00,,2013-10-18 12:42:00,
2013-10-18 08:52:00,71.0,70.0,29.93,South,171,0.0,0.0,97,0.00,,,0.00,,2013-10-18 12:52:00,
2013-10-18 09:11:00,73.0,72.0,29.94,South,172,0.0,0.0,97,0.00,,,0.00,,2013-10-18 13:11:00,
2013-10-18 09:22:00,73.0,72.0,29.94,South,171,0.0,0.0,97,0.00,,,0.00,,2013-10-18 13:22:00,
2013-10-18 09:42:00,73.0,72.0,29.95,SSE,156,0.0,1.0,97,0.00,,,0.00,,2013-10-18 13:42:00,
2013-10-18 09:52:00,74.0,73.0,29.95,SSE,156,0.0,2.0,97,0.00,,,0.00,,2013-10-18 13:52:00,
2013-10-18 10:11:00,74.0,73.0,29.96,SSE,156,0.0,1.0,97,0.00,,,0.00,,2013-10-18 14:11:00,
2013-10-18 10:22:00,74.0,73.0,29.96,SSE,155,0.0,1.0,97,0.00,,,0.00,,2013-10-18 14:22:00,
2013-10-18 10:42:00,75.0,73.0,29.96,SSE,156,0.0,0.0,95,0.00,,,0.00,,2013-10-18 14:42:00,
2013-10-18 10:52:00,76.0,74.0,29.96,SSE,156,0.0,0.0,94,0.00,,,0.00,,2013-10-18 14:52:00,
2013-10-18 11:11:00,77.0,74.0,29.96,SSE,156,0.0,0.0,91,0.00,,,0.00,,2013-10-18 15:11:00,
2013-10-18 11:22:00,77.0,74.0,29.96,SSE,156,0.0,1.0,90,0.00,,,0.00,,2013-10-18 15:22:00,
2013-10-18 11:43:00,77.0,74.0,29.96,SSE,156,0.0,1.0,90,0.00,,,0.00,,2013-10-18 15:43:00,
2013-10-18 11:54:00,77.0,74.0,29.96,NNE,25,0.0,2.0,90,0.00,,,0.00,,2013-10-18 15:54:00,
2013-10-18 12:13:00,77.0,74.0,29.96,NNE,25,1.0,2.0,89,0.00,,,0.00,,2013-10-18 16:13:00,
2013-10-18 12:24:00,77.0,74.0,29.95,NNE,25,0.0,2.0,89,0.00,,,0.00,,2013-10-18 16:24:00,
2013-10-18 12:42:00,78.0,74.0,29.95,NNE,25,0.0,2.0,88,0.00,,,0.00,,2013-10-18 16:42:00,
2013-10-18 12:53:00,79.0,74.0,29.95,NNE,25,0.0,2.0,86,0.00,,,0.00,,2013-10-18 16:53:00,
2013-10-18 13:12:00,81.0,76.0,29.94,NNE,28,0.0,3.0,84,0.00,,,0.00,,2013-10-18 17:12:00,
2013-10-18 13:22:00,81.0,74.0,29.94,NNE,28,0.0,2.0,80,0.00,,,0.00,,2013-10-18 17:22:00,
2013-10-18 13:42:00,83.0,75.0,29.93,SW,214,1.0,2.0,77,0.00,,,0.00,,2013-10-18 17:42:00,
2013-10-18 13:52:00,83.0,75.0,29.93,SW,214,1.0,2.0,77,0.00,,,0.00,,2013-10-18 17:52:00,
2013-10-18 14:12:00,82.0,73.0,29.91,SSW,207,0.0,2.0,74,0.00,,,0.00,,2013-10-18 18:12:00,
2013-10-18 14:22:00,83.0,74.0,29.91,SSW,207,0.0,2.0,74,0.00,,,0.00,,2013-10-18 18:22:00,
2013-10-18 14:42:00,83.0,73.0,29.90,WSW,253,0.0,2.0,71,0.00,,,0.00,,2013-10-18 18:42:00,
2013-10-18 14:52:00,83.0,73.0,29.90,WSW,254,1.0,2.0,72,0.00,,,0.00,,2013-10-18 18:52:00,
2013-10-18 15:12:00,83.0,74.0,29.90,SE,145,0.0,1.0,74,0.00,,,0.00,,2013-10-18 19:12:00,
2013-10-18 15:22:00,82.0,73.0,29.90,SE,145,0.0,1.0,75,0.00,,,0.00,,2013-10-18 19:22:00,
2013-10-18 15:42:00,83.0,73.0,29.89,NNE,31,0.0,2.0,73,0.00,,,0.00,,2013-10-18 19:42:00,
2013-10-18 15:52:00,83.0,73.0,29.89,SE,127,0.0,2.0,72,0.00,,,0.00,,2013-10-18 19:52:00,
2013-10-18 16:11:00,82.0,74.0,29.89,ESE,106,0.0,7.0,76,0.00,,,0.00,,2013-10-18 20:11:00,
2013-10-18 16:22:00,82.0,74.0,29.89,South,185,1.0,7.0,77,0.00,,,0.00,,2013-10-18 20:22:00,
2013-10-18 16:42:00,82.0,74.0,29.89,SSE,152,1.0,6.0,77,0.00,,,0.00,,2013-10-18 20:42:00,
2013-10-18 16:52:00,82.0,74.0,29.89,SSE,153,0.0,2.0,77,0.00,,,0.00,,2013-10-18 20:52:00,
2013-10-18 17:12:00,81.0,73.0,29.89,South,179,2.0,6.0,77,0.00,,,0.00,,2013-10-18 21:12:00,
2013-10-18 17:22:00,81.0,73.0,29.89,SSE,168,1.0,5.0,78,0.00,,,0.00,,2013-10-18 21:22:00,
2013-10-18 17:44:00,80.0,73.0,29.89,SE,141,1.0,5.0,79,0.00,,,0.00,,2013-10-18 21:44:00,
2013-10-18 17:54:00,80.0,72.0,29.89,SSE,159,2.0,7.0,78,0.00,,,0.00,,2013-10-18 21:54:00,
2013-10-18 18:13:00,79.0,72.0,29.90,SSE,162,1.0,3.0,80,0.00,,,0.00,,2013-10-18 22:13:00,
2013-10-18 18:24:00,79.0,73.0,29.90,SSE,154,1.0,5.0,81,0.00,,,0.00,,2013-10-18 22:24:00,
2013-10-18 18:43:00,78.0,72.0,29.91,SSE,162,1.0,6.0,83,0.00,,,0.00,,2013-10-18 22:43:00,
2013-10-18 18:54:00,78.0,73.0,29.91,SSE,168,2.0,5.0,84,0.00,,,0.00,,2013-10-18 22:54:00,
2013-10-18 19:12:00,77.0,72.0,29.91,South,181,0.0,1.0,86,0.00,,,0.00,,2013-10-18 23:12:00,
2013-10-18 19:23:00,77.0,73.0,29.91,South,181,0.0,1.0,87,0.00,,,0.00,,2013-10-18 23:23:00,
2013-10-18 19:43:00,76.0,72.0,29.92,South,180,0.0,0.0,88,0.00,,,0.00,,2013-10-18 23:43:00,
2013-10-18 19:53:00,76.0,73.0,29.92,South,181,0.0,0.0,89,0.00,,,0.00,,2013-10-18 23:53:00,
2013-10-18 20:12:00,76.0,73.0,29.93,South,180,0.0,1.0,90,0.00,,,0.00,,2013-10-19 00:12:00,
2013-10-18 20:22:00,76.0,73.0,29.93,South,181,0.0,0.0,90,0.00,,,0.00,,2013-10-19 00:22:00,
2013-10-18 20:42:00,75.0,72.0,29.93,South,181,0.0,0.0,91,0.00,,,0.00,,2013-10-19 00:42:00,
2013-10-18 20:52:00,75.0,72.0,29.93,South,181,0.0,0.0,91,0.00,,,0.00,,2013-10-19 00:52:00,
2013-10-18 21:12:00,75.0,72.0,29.93,SW,233,0.0,1.0,91,0.00,,,0.00,,2013-10-19 01:12:00,
2013-10-18 21:22:00,75.0,72.0,29.93,SW,233,0.0,1.0,91,0.00,,,0.00,,2013-10-19 01:22:00,
2013-10-18 21:42:00,74.0,72.0,29.94,WNW,299,0.0,1.0,93,0.00,,,0.00,,2013-10-19 01:42:00,
2013-10-18 21:53:00,74.0,72.0,29.94,WNW,299,0.0,0.0,93,0.00,,,0.00,,2013-10-19 01:53:00,
2013-10-18 22:12:00,74.0,72.0,29.93,WNW,299,0.0,1.0,93,0.00,,,0.00,,2013-10-19 02:12:00,
2013-10-18 22:22:00,74.0,72.0,29.93,WNW,301,0.0,1.0,94,0.00,,,0.00,,2013-10-19 02:22:00,
2013-10-18 22:42:00,74.0,72.0,29.94,North,5,0.0,3.0,94,0.00,,,0.00,,2013-10-19 02:42:00,
2013-10-18 22:52:00,73.0,71.0,29.94,North,5,0.0,0.0,94,0.00,,,0.00,,2013-10-19 02:52:00,
2013-10-18 23:12:00,73.0,71.0,29.95,North,6,0.0,0.0,94,0.00,,,0.00,,2013-10-19 03:12:00,
2013-10-18 23:23:00,72.0,70.0,29.95,North,4,0.0,0.0,95,0.00,,,0.00,,2013-10-19 03:23:00,
2013-10-18 23:44:00,72.0,70.0,29.94,North,5,0.0,0.0,95,0.00,,,0.00,,2013-10-19 03:44:00,
2013-10-18 23:55:00,72.0,70.0,29.94,North,4,0.0,0.0,95,0.00,,,0.00,,2013-10-19 03:55:00,